[[{"header":{"parameterUnit":"m.s-1","parameterCategory":1,"la1":30.2991,"la2":30.254,"lo1":-89.0895,"lo2":-89.0444,"dy":0.0017,"dx":0.0017,"nx":28,"ny":28,"refTime":"2025-04-16T03:00:00:Z","depth":0,"parameterNumber":2,"parameterNumberName":"U-component_of_WINDS"},"data":[0,0,0,0,0,0,0,0,0,0,0,0,0,0,0,0,0,0,0,0,0,0,0,0,0,0,0,0,0,0,0,0,0,0,0,0,0,0,0,0,0,0,0,0,0,0,0,0,0,0,0,0,0,0,0,0,0,0,-1.2645,-1.2646,0,-1.2738,-1.2739,-1.274,-1.2774,-1.2774,-1.2774,-1.2773,-1.2871,-1.2874,-1.2877,0,0,0,0,0,0,0,0,0,0,0,0,0,-1.2501,-1.2503,-1.2645,-1.2646,-1.2647,-1.2738,-1.2739,-1.274,-1.2774,-1.2774,-1.2774,-1.2773,-1.287,-1.2874,-1.2877,0,0,0,0,0,0,0,0,0,0,0,0,0,-1.2575,-1.2504,-1.2645,-1.2675,-1.2679,-1.2737,-1.2739,-1.2741,-1.2774,-1.2774,-1.2773,-1.2773,-1.2869,-1.2873,-1.2878,-1.2914,0,0,-1.2891,-1.2893,0,0,0,0,0,0,0,0,-1.2571,-1.2581,-1.2669,-1.2673,-1.2677,-1.2744,-1.2724,-1.2799,-1.2775,-1.2738,-1.2773,-1.2773,-1.2829,-1.2837,-1.2855,-1.2918,-1.2922,-1.2891,-1.2894,-1.2896,-1.2897,0,0,0,0,0,0,0,-1.2566,-1.2577,-1.2682,-1.2671,-1.2675,-1.2685,-1.2695,-1.2738,-1.2785,-1.2741,-1.2744,-1.2754,-1.2831,-1.2851,-1.2858,-1.2924,-1.2891,-1.2895,-1.2898,-1.2899,-1.3022,-1.3023,0,0,0,0,0,0,-1.2555,-1.2572,-1.2679,-1.2685,-1.2622,-1.2688,-1.2699,-1.2723,-1.2785,-1.2794,-1.2755,-1.2756,-1.2844,-1.2853,-1.2862,-1.2909,-1.2896,-1.29,-1.2902,-1.3022,-1.3023,-1.3023,0,0,0,0,0,0,-1.2552,-1.2564,-1.2675,-1.2629,-1.2644,-1.2691,-1.2717,-1.2725,-1.2745,-1.2795,-1.2804,-1.2766,-1.2844,-1.2855,-1.2901,-1.2913,-1.2902,-1.2906,-1.3021,-1.3022,-1.3023,-1.3003,0,0,0,0,0,0,-1.2548,-1.2563,-1.2576,-1.2629,-1.2646,-1.2711,-1.2718,-1.2727,-1.2752,-1.2754,-1.2808,-1.2816,-1.2845,-1.2894,-1.2905,-1.2918,-1.2909,-1.302,-1.3021,-1.3023,-1.3002,-1.3003,-1.3003,0,0,0,0,0,-1.2542,-1.2567,-1.2577,-1.2589,-1.2664,-1.2712,-1.2722,-1.2753,-1.2753,-1.2767,-1.28,-1.2815,-1.2909,-1.2898,-1.2911,-1.2926,-1.3019,-1.3021,-1.3023,-1.3002,-1.3003,-1.3003,0,0,0,0,0,0,-1.2515,-1.2575,-1.2586,-1.2628,-1.2665,-1.2718,-1.2737,-1.2752,-1.279,-1.2791,-1.2828,-1.284,-1.2882,-1.2909,-1.2895,-1.2965,-1.2966,-1.297,-1.2946,-1.2947,-1.2947,-1.294,-1.2913,0,0,0,0,0,-1.2514,-1.2547,-1.2598,-1.263,-1.2648,-1.2689,-1.2711,-1.2732,-1.2772,-1.2787,-1.2823,-1.2862,-1.29,-1.2925,-1.2963,-1.3006,-1.3019,-1.3023,-1.3023,-1.3023,-1.3027,-1.3053,-1.3055,-1.3028,-1.3028,-1.3028,0,0,-1.2512,-1.2549,-1.2567,-1.2626,-1.2656,-1.2691,-1.2702,-1.2738,-1.2764,-1.2793,-1.2838,-1.2865,-1.2911,-1.2956,-1.2977,-1.2979,-1.3037,-1.3025,-1.3025,-1.3028,-1.3054,-1.3057,-1.3059,-1.3029,-1.3029,-1.3029,0,0,-1.2526,-1.2557,-1.2588,-1.2618,-1.2664,-1.2692,-1.2699,-1.275,-1.2769,-1.2814,-1.2837,-1.287,-1.2935,-1.2967,-1.2992,-1.3019,-1.3035,-1.3031,-1.3033,-1.3057,-1.306,-1.3062,-1.3072,-1.3075,-1.3034,-1.3034,-1.3034,0,-1.2518,-1.257,-1.2602,-1.2637,-1.2662,-1.269,-1.2722,-1.275,-1.2807,-1.2825,-1.2826,-1.2909,-1.2942,-1.2994,-1.3001,-1.302,-1.3031,-1.3025,-1.3057,-1.3059,-1.3061,-1.3072,-1.3076,-1.3033,-1.3033,-1.3033,-1.3033,0,-1.2559,-1.2595,-1.2614,-1.2667,-1.2695,-1.2729,-1.2767,-1.2791,-1.281,-1.2837,-1.2884,-1.2924,-1.2972,-1.2986,-1.3004,-1.3042,-1.3041,-1.3049,-1.3051,-1.3063,-1.3073,-1.3077,-1.3032,-1.3032,-1.3032,-1.3033,0,0,-1.2559,-1.2629,-1.2636,-1.266,-1.2714,-1.2742,-1.2778,-1.2823,-1.2844,-1.2883,-1.2914,-1.2969,-1.2977,-1.3005,-1.3027,-1.3049,-1.3069,-1.3054,-1.3056,-1.3056,-1.3114,-1.3108,-1.3112,-1.308,-1.3081,-1.3082,-1.311,0,-1.258,-1.2643,-1.2673,-1.2724,-1.2758,-1.2784,-1.2816,-1.2852,-1.2879,-1.2913,-1.2943,-1.2982,-1.2989,-1.3006,-1.3029,-1.3062,-1.3081,-1.306,-1.3111,-1.3112,-1.3098,-1.3117,-1.3111,-1.3136,-1.3114,-1.3115,-1.3116,0,-1.2614,-1.2651,-1.2705,-1.2755,-1.277,-1.2797,-1.2842,-1.2874,-1.2916,-1.2935,-1.2966,-1.2988,-1.3028,-1.3026,-1.3082,-1.3067,-1.309,-1.3109,-1.3111,-1.3117,-1.3115,-1.3125,-1.3145,-1.3149,-1.3122,-1.3122,-1.3121,0,-1.2609,-1.2673,-1.2714,-1.2734,-1.2793,-1.2811,-1.2837,-1.2879,-1.2905,-1.2944,-1.2962,-1.3005,-1.303,-1.3063,-1.3097,-1.3093,-1.315,-1.3151,-1.3167,-1.3166,-1.3178,-1.3177,-1.3203,-1.3192,-1.3192,-1.3192,-1.3192,0,-1.2631,-1.2663,-1.2712,-1.2737,-1.2774,-1.2809,-1.2845,-1.2873,-1.291,-1.2942,-1.2968,-1.2998,-1.304,-1.3075,-1.3102,-1.3145,-1.3155,-1.3172,-1.3179,-1.317,-1.3168,-1.3185,-1.3185,-1.3193,-1.3192,-1.3192,-1.3192,0,-1.2632,-1.2666,-1.2712,-1.2764,-1.2778,-1.2803,-1.2848,-1.2874,-1.2902,-1.2942,-1.2954,-1.2999,-1.3041,-1.3078,-1.3135,-1.3153,-1.3197,-1.3205,-1.3183,-1.3186,-1.32,-1.3199,-1.3239,-1.3246,-1.3229,-1.3229,-1.3229,0,-1.2643,-1.2668,-1.2723,-1.2745,-1.277,-1.2807,-1.2833,-1.2868,-1.2895,-1.2946,-1.2966,-1.301,-1.3048,-1.3116,-1.3154,-1.3198,-1.3208,-1.3219,-1.3214,-1.3205,-1.3209,-1.3207,-1.321,-1.3219,-1.3219,-1.3219,-1.3219,0,-1.2661,-1.2677,-1.2713,-1.2755,-1.2785,-1.2821,-1.2857,-1.2874,-1.2917,-1.2946,-1.2989,-1.3018,-1.3076,-1.3121,-1.3169,-1.3197,-1.3215,-1.322,-1.3226,-1.3217,-1.3203,-1.3212,-1.3184,-1.3219,-1.3219,-1.3219,-1.3219,-1.3219,-1.2668,-1.2692,-1.2734,-1.2774,-1.2804,-1.2838,-1.2865,-1.2896,-1.2933,-1.2982,-1.3001,-1.3046,-1.3089,-1.3156,-1.3184,-1.322,-1.3223,-1.3232,-1.3234,-1.3236,-1.3235,-1.3197,-1.3229,-1.3229,-1.3229,-1.3229,-1.3229,0,-1.2688,-1.2716,-1.2752,-1.2801,-1.2833,-1.2846,-1.2887,-1.2913,-1.2952,-1.299,-1.3027,-1.3077,-1.3121,-1.3163,-1.3208,-1.323,-1.3239,-1.3241,-1.324,-1.3246,-1.3229,-1.322,-1.3232,-1.3232,-1.3232,-1.3232,-1.3232,-1.3232,-1.2701,-1.2742,-1.2763,-1.282,-1.2849,-1.2892,-1.2915,-1.2946,-1.2977,-1.3032,-1.3068,-1.3094,-1.3135,-1.3183,-1.3224,-1.3236,-1.3252,-1.3251,-1.3264,-1.3248,-1.3247,-1.3246,-1.3238,-1.3254,-1.3254,-1.3278,-1.3279,-1.3279]},{"header":{"parameterUnit":"m.s-1","parameterCategory":1,"la1":30.2991,"la2":30.254,"lo1":-89.0895,"lo2":-89.0444,"dy":0.0017,"dx":0.0017,"nx":28,"ny":28,"refTime":"2025-04-16T03:00:00:Z","depth":0,"parameterNumber":3,"parameterNumberName":"V-component_of_WINDS"},"data":[0,0,0,0,0,0,0,0,0,0,0,0,0,0,0,0,0,0,0,0,0,0,0,0,0,0,0,0,0,0,0,0,0,0,0,0,0,0,0,0,0,0,0,0,0,0,0,0,0,0,0,0,0,0,0,0,0,0,6.5606,6.5606,0,6.5676,6.5677,6.5678,6.5608,6.5605,6.5603,6.56,6.5666,6.5671,6.5675,0,0,0,0,0,0,0,0,0,0,0,0,0,6.5402,6.5406,6.5605,6.5606,6.5607,6.5676,6.5677,6.5678,6.5609,6.5605,6.5602,6.5599,6.5665,6.567,6.5675,0,0,0,0,0,0,0,0,0,0,0,0,0,6.5483,6.5408,6.5605,6.5581,6.5579,6.5676,6.5677,6.5678,6.5609,6.5605,6.5601,6.5597,6.5663,6.567,6.5676,6.5798,0,0,6.5696,6.5699,0,0,0,0,0,0,0,0,6.5479,6.5491,6.5584,6.5583,6.5581,6.5629,6.563,6.5718,6.561,6.5598,6.56,6.5595,6.5657,6.5664,6.5686,6.5802,6.5804,6.5696,6.57,6.5703,6.5705,0,0,0,0,0,0,0,6.5473,6.5487,6.5633,6.5585,6.5584,6.5564,6.5571,6.5646,6.5649,6.5598,6.5594,6.5603,6.5656,6.568,6.5687,6.5805,6.5696,6.5702,6.5706,6.5709,6.6022,6.6026,0,0,0,0,0,0,6.5471,6.5483,6.5631,6.5635,6.5519,6.5571,6.5579,6.5618,6.5648,6.5649,6.5607,6.56,6.5671,6.5679,6.5689,6.5832,6.5703,6.5709,6.5713,6.6017,6.6023,6.6027,0,0,0,0,0,0,6.5467,6.5485,6.5628,6.5558,6.5575,6.5579,6.5623,6.5622,6.5646,6.5655,6.5654,6.5632,6.5668,6.568,6.5771,6.5833,6.5712,6.5718,6.6012,6.6019,6.6025,6.612,0,0,0,0,0,0,6.5462,6.5484,6.5533,6.556,6.5579,6.5712,6.5627,6.5626,6.5658,6.5649,6.5678,6.5678,6.5666,6.5762,6.5778,6.584,6.5723,6.6006,6.6015,6.6023,6.6112,6.613,6.6145,0,0,0,0,0,6.5455,6.5556,6.5535,6.5554,6.564,6.5716,6.5726,6.5711,6.5663,6.571,6.5716,6.5678,6.5825,6.5772,6.5789,6.5854,6.6002,6.6013,6.6022,6.6104,6.6126,6.6144,0,0,0,0,0,0,6.5534,6.5559,6.5537,6.565,6.5682,6.5704,6.5763,6.5735,6.5779,6.5769,6.5747,6.5754,6.585,6.5862,6.5803,6.5973,6.5905,6.5919,6.5962,6.5983,6.5999,6.5993,6.5729,0,0,0,0,0,6.5565,6.5627,6.5645,6.5743,6.576,6.5759,6.5792,6.5777,6.5808,6.582,6.5832,6.5862,6.5914,6.5949,6.5998,6.6114,6.6117,6.6167,6.6183,6.6197,6.6208,6.6267,6.6288,6.606,6.606,6.606,0,0,6.5629,6.565,6.569,6.5759,6.5782,6.5844,6.5771,6.584,6.5884,6.583,6.5917,6.5927,6.5958,6.6062,6.6108,6.6074,6.6272,6.6209,6.622,6.6224,6.6279,6.6301,6.632,6.6067,6.6066,6.6064,0,0,6.5776,6.5801,6.5884,6.5908,6.5944,6.5943,6.5963,6.5989,6.5994,6.6082,6.6042,6.6094,6.6186,6.6209,6.6232,6.6388,6.6353,6.6405,6.649,6.6548,6.6566,6.6581,6.6634,6.6654,6.6416,6.6417,6.6417,0,6.5851,6.5945,6.593,6.6002,6.6031,6.5987,6.607,6.6093,6.6143,6.6163,6.6125,6.6238,6.6256,6.6363,6.6401,6.6423,6.6443,6.64,6.6565,6.658,6.6595,6.6645,6.6665,6.6422,6.6422,6.6421,6.6421,0,6.6033,6.6099,6.6161,6.6212,6.6249,6.6326,6.6319,6.6358,6.6341,6.6343,6.6431,6.6451,6.6502,6.6527,6.651,6.6631,6.6609,6.6569,6.65,6.6623,6.6669,6.6688,6.6431,6.6429,6.6427,6.6426,0,0,6.6232,6.6273,6.6296,6.6317,6.6353,6.6402,6.6476,6.6527,6.656,6.6595,6.6654,6.6733,6.6695,6.6723,6.6708,6.6759,6.6877,6.6712,6.6712,6.674,6.7009,6.7037,6.706,6.6856,6.6859,6.6862,6.7005,0,6.6379,6.6509,6.6497,6.6619,6.6677,6.6636,6.6699,6.6727,6.673,6.6778,6.6781,6.6836,6.6784,6.68,6.6849,6.6853,6.6931,6.6843,6.6907,6.691,6.6899,6.7084,6.7115,6.7249,6.7023,6.7027,6.7029,0,6.6568,6.6611,6.674,6.6765,6.6789,6.6847,6.6892,6.694,6.6969,6.6967,6.6998,6.6974,6.7044,6.6976,6.7072,6.7012,6.7038,6.7044,6.7049,6.7052,6.6975,6.709,6.7292,6.7311,6.7058,6.7055,6.7053,0,6.6697,6.6787,6.6875,6.6895,6.6927,6.6968,6.6983,6.7009,6.704,6.7079,6.7098,6.7145,6.717,6.7205,6.7193,6.7145,6.729,6.7221,6.7289,6.7289,6.7319,6.7317,6.7525,6.734,6.734,6.734,6.7339,0,6.6861,6.694,6.6933,6.6987,6.7074,6.7058,6.7144,6.7153,6.7176,6.7229,6.7195,6.7245,6.7227,6.7276,6.7267,6.7346,6.7358,6.7356,6.7353,6.7358,6.7358,6.7373,6.7362,6.7345,6.7344,6.7343,6.7342,0,6.7019,6.7018,6.711,6.7134,6.7141,6.7204,6.7222,6.7272,6.7273,6.734,6.7354,6.7355,6.741,6.7402,6.7463,6.7456,6.7554,6.754,6.7545,6.7541,6.7607,6.76,6.783,6.7858,6.7658,6.766,6.7662,0,6.7123,6.7183,6.7213,6.7247,6.7265,6.732,6.7352,6.7338,6.7372,6.7409,6.7453,6.7506,6.7546,6.7635,6.764,6.7685,6.767,6.7748,6.7677,6.768,6.7668,6.7664,6.7669,6.7761,6.7763,6.7765,6.7767,0,6.7306,6.7302,6.7351,6.7399,6.7438,6.7475,6.7508,6.7537,6.7526,6.7566,6.7622,6.7654,6.7716,6.7767,6.781,6.7822,6.7792,6.779,6.7807,6.7812,6.7811,6.781,6.7581,6.7784,6.7782,6.7781,6.778,6.7779,6.7438,6.7489,6.7518,6.7572,6.7596,6.7627,6.7674,6.7681,6.7729,6.7779,6.7768,6.7831,6.7856,6.791,6.7928,6.7975,6.7946,6.7972,6.7978,6.7984,6.7991,6.7806,6.7983,6.7982,6.7982,6.7981,6.7981,0,6.7617,6.7634,6.7684,6.7732,6.7774,6.7745,6.7779,6.7816,6.7872,6.79,6.7941,6.8004,6.8053,6.8062,6.8108,6.8144,6.8131,6.8156,6.8152,6.8155,6.8015,6.7994,6.8165,6.8165,6.8165,6.8165,6.8165,6.8165,6.7716,6.7799,6.7799,6.7893,6.7908,6.7971,6.7993,6.802,6.8042,6.8115,6.8156,6.8162,6.818,6.8227,6.827,6.8271,6.8288,6.8319,6.8314,6.8183,6.8165,6.8147,6.8127,6.8323,6.8323,6.8449,6.845,6.8451]}]]